Location: Fontevrault
(47.1823°N, 0.0493°E)
Time: 11:43:50
(UTC+00:00)

Lacrosse 5 - Pass Details

Date: 03 November 2021
Orbit: 714 x 724 km, 57.0° (Epoch: 28 August)

Event Time Altitude Azimuth Distance (km) Brightness Sun altitude
Rises 20:26:33 0° 277° (W) 3,139 6.0 -38.5°
Reaches altitude 10° 20:29:14 10° 289° (WNW) 2,218 5.1 -38.9°
Enters shadow 20:30:52 18° 302° (WNW) 1,730 4.4 -39.2°
